EN

Hourly Weather Afzalpur

Today, 5 December, Saturday

Time Temperature Precipitation Wind Pressure Humidity
00:00 +22°C° 0 mm 3 mps 723 mmHg 55%
01:00 +22°C° 0 mm 3 mps 723 mmHg 58%
02:00 +21°C° 0 mm 3 mps 722 mmHg 61%
03:00 +21°C° 0 mm 3 mps 722 mmHg 64%
04:00 +20°C° 0 mm 2 mps 722 mmHg 68%
05:00 +20°C° 0 mm 2 mps 722 mmHg 71%
06:00 +21°C° 0 mm 2 mps 723 mmHg 68%
07:00 +23°C° 0 mm 2 mps 724 mmHg 65%
08:00 +24°C° 0 mm 2 mps 724 mmHg 62%
09:00 +26°C° 0 mm 3 mps 724 mmHg 53%
10:00 +28°C° 0 mm 3 mps 724 mmHg 44%
11:00 +30°C° 0 mm 3 mps 724 mmHg 35%
12:00 +31°C° 0 mm 3 mps 723 mmHg 30%
13:00 +33°C° 0 mm 3 mps 722 mmHg 25%
14:00 +34°C° 0 mm 3 mps 721 mmHg 21%
15:00 +33°C° 0 mm 3 mps 721 mmHg 22%
16:00 +31°C° 0 mm 3 mps 721 mmHg 24%
17:00 +30°C° 0 mm 3 mps 721 mmHg 26%
18:00 +29°C° 0 mm 4 mps 722 mmHg 29%
19:00 +27°C° 0 mm 4 mps 722 mmHg 32%
20:00 +26°C° 0 mm 4 mps 723 mmHg 34%
21:00 +25°C° 0 mm 4 mps 723 mmHg 38%
22:00 +23°C° 0 mm 4 mps 723 mmHg 42%
23:00 +22°C° 0 mm 4 mps 723 mmHg 46%

Tomorrow, 6 December, Sunday

Time Temperature Precipitation Wind Pressure Humidity
00:00 +22°C° 0 mm 4 mps 723 mmHg 50%
01:00 +21°C° 0 mm 3 mps 723 mmHg 55%
02:00 +20°C° 0 mm 3 mps 723 mmHg 59%
03:00 +20°C° 0 mm 3 mps 723 mmHg 61%
04:00 +20°C° 0 mm 3 mps 723 mmHg 63%
05:00 +19°C° 0 mm 3 mps 723 mmHg 66%
06:00 +20°C° 0 mm 3 mps 724 mmHg 63%
07:00 +21°C° 0 mm 3 mps 724 mmHg 60%
08:00 +22°C° 0 mm 4 mps 725 mmHg 58%
09:00 +25°C° 0 mm 4 mps 725 mmHg 50%
10:00 +27°C° 0 mm 4 mps 725 mmHg 43%
11:00 +29°C° 0 mm 5 mps 725 mmHg 35%
12:00 +30°C° 0 mm 5 mps 724 mmHg 32%
13:00 +32°C° 0 mm 4 mps 723 mmHg 29%
14:00 +33°C° 0 mm 4 mps 723 mmHg 25%
15:00 +32°C° 0 mm 4 mps 723 mmHg 28%
16:00 +30°C° 0 mm 4 mps 722 mmHg 31%
17:00 +29°C° 0 mm 3 mps 722 mmHg 33%
18:00 +28°C° 0 mm 4 mps 723 mmHg 38%
19:00 +27°C° 0 mm 4 mps 724 mmHg 42%
20:00 +25°C° 0 mm 4 mps 724 mmHg 47%
21:00 +25°C° 0 mm 4 mps 724 mmHg 49%
22:00 +24°C° 0 mm 3 mps 724 mmHg 52%
23:00 +22°C° 0 mm 3 mps 724 mmHg 55%

Day after tomorrow, 7 December, Monday

Time Temperature Precipitation Wind Pressure Humidity
00:00 +21°C° 0 mm 3 mps 724 mmHg 58%
01:00 +21°C° 0 mm 3 mps 724 mmHg 62%
02:00 +20°C° 0 mm 3 mps 724 mmHg 65%
03:00 +20°C° 0 mm 3 mps 724 mmHg 67%
04:00 +20°C° 0 mm 3 mps 724 mmHg 70%
05:00 +19°C° 0 mm 3 mps 724 mmHg 72%
06:00 +21°C° 0 mm 3 mps 724 mmHg 67%
07:00 +22°C° 0 mm 4 mps 725 mmHg 63%
08:00 +23°C° 0 mm 4 mps 726 mmHg 59%
09:00 +26°C° 0 mm 4 mps 726 mmHg 52%
10:00 +28°C° 0 mm 5 mps 726 mmHg 45%
11:00 +30°C° 0 mm 5 mps 726 mmHg 38%
12:00 +30°C° 0 mm 5 mps 725 mmHg 35%
13:00 +32°C° 0 mm 5 mps 724 mmHg 33%
14:00 +33°C° 0 mm 5 mps 724 mmHg 30%
15:00 +32°C° 0 mm 4 mps 724 mmHg 32%
16:00 +30°C° 0 mm 4 mps 724 mmHg 33%
17:00 +29°C° 0 mm 3 mps 724 mmHg 34%
18:00 +28°C° 0 mm 3 mps 724 mmHg 35%
19:00 +27°C° 0 mm 4 mps 725 mmHg 37%
20:00 +25°C° 0 mm 4 mps 726 mmHg 38%
21:00 +23°C° 0 mm 4 mps 726 mmHg 42%
22:00 +22°C° 0 mm 3 mps 726 mmHg 46%
23:00 +21°C° 0 mm 3 mps 726 mmHg 50%

8 December, Tuesday

Time Temperature Precipitation Wind Pressure Humidity
00:00 +21°C° 0 mm 3 mps 725 mmHg 53%
01:00 +20°C° 0 mm 3 mps 725 mmHg 56%
02:00 +19°C° 0 mm 3 mps 724 mmHg 59%
03:00 +19°C° 0 mm 3 mps 724 mmHg 62%
04:00 +19°C° 0 mm 3 mps 724 mmHg 65%
05:00 +18°C° 0 mm 3 mps 724 mmHg 68%
06:00 +19°C° 0 mm 3 mps 725 mmHg 64%
07:00 +21°C° 0 mm 3 mps 725 mmHg 61%
08:00 +22°C° 0 mm 3 mps 726 mmHg 57%
09:00 +25°C° 0 mm 4 mps 726 mmHg 49%
10:00 +28°C° 0 mm 4 mps 726 mmHg 40%
11:00 +30°C° 0 mm 5 mps 726 mmHg 31%
12:00 +32°C° 0 mm 5 mps 725 mmHg 29%
13:00 +33°C° 0 mm 4 mps 725 mmHg 26%
14:00 +34°C° 0 mm 4 mps 724 mmHg 23%
15:00 +33°C° 0 mm 4 mps 724 mmHg 26%
16:00 +31°C° 0 mm 3 mps 724 mmHg 28%
17:00 +30°C° 0 mm 3 mps 724 mmHg 31%
18:00 +28°C° 0 mm 3 mps 724 mmHg 34%
19:00 +27°C° 0 mm 4 mps 724 mmHg 37%
20:00 +25°C° 0 mm 4 mps 725 mmHg 40%
21:00 +23°C° 0 mm 4 mps 725 mmHg 44%
22:00 +22°C° 0 mm 4 mps 725 mmHg 48%
23:00 +21°C° 0 mm 3 mps 725 mmHg 53%

9 December, Wednesday

Time Temperature Precipitation Wind Pressure Humidity
00:00 +21°C° 0 mm 3 mps 724 mmHg 56%
01:00 +20°C° 0 mm 3 mps 724 mmHg 60%
02:00 +19°C° 0 mm 2 mps 724 mmHg 64%
03:00 +19°C° 0 mm 2 mps 724 mmHg 66%
04:00 +18°C° 0 mm 2 mps 724 mmHg 69%
05:00 +19°C° 0 mm 1 mps 724 mmHg 71%
06:00 +19°C° 0 mm 2 mps 725 mmHg 66%
07:00 +21°C° 0 mm 2 mps 725 mmHg 61%
08:00 +23°C° 0 mm 2 mps 726 mmHg 55%
09:00 +25°C° 0 mm 2 mps 726 mmHg 48%
10:00 +27°C° 0 mm 3 mps 725 mmHg 40%
11:00 +30°C° 0 mm 3 mps 725 mmHg 33%
12:00 +30°C° 0 mm 3 mps 725 mmHg 30%
13:00 +31°C° 0 mm 3 mps 724 mmHg 27%
14:00 +33°C° 0 mm 3 mps 723 mmHg 23%
15:00 +31°C° 0 mm 3 mps 723 mmHg 26%
16:00 +30°C° 0 mm 2 mps 723 mmHg 28%
17:00 +29°C° 0 mm 2 mps 722 mmHg 30%
18:00 +28°C° 0 mm 2 mps 723 mmHg 31%
19:00 +27°C° 0 mm 2 mps 723 mmHg 33%
20:00 +25°C° 0 mm 3 mps 724 mmHg 34%
21:00 +25°C° 0 mm 3 mps 724 mmHg 36%
22:00 +24°C° 0 mm 3 mps 724 mmHg 39%
23:00 +22°C° 0 mm 3 mps 724 mmHg 41%

10 December, Thursday

Time Temperature Precipitation Wind Pressure Humidity
00:00 +21°C° 0 mm 3 mps 723 mmHg 46%
01:00 +21°C° 0 mm 3 mps 723 mmHg 50%
02:00 +20°C° 0 mm 3 mps 722 mmHg 55%
03:00 +20°C° 0 mm 3 mps 723 mmHg 59%
04:00 +19°C° 0 mm 3 mps 723 mmHg 63%
05:00 +19°C° 0 mm 2 mps 723 mmHg 67%
06:00 +20°C° 0 mm 2 mps 723 mmHg 65%
07:00 +21°C° 0 mm 2 mps 724 mmHg 62%
08:00 +24°C° 0 mm 2 mps 725 mmHg 59%
09:00 +26°C° 0 mm 3 mps 724 mmHg 51%
10:00 +28°C° 0 mm 3 mps 724 mmHg 43%
11:00 +30°C° 0 mm 3 mps 724 mmHg 35%
12:00 +31°C° 0 mm 3 mps 724 mmHg 32%
13:00 +33°C° 0 mm 3 mps 723 mmHg 28%
14:00 +33°C° 0 mm 3 mps 722 mmHg 24%
15:00 +33°C° 0 mm 3 mps 722 mmHg 26%
16:00 +31°C° 0 mm 3 mps 722 mmHg 28%
17:00 +30°C° 0 mm 2 mps 722 mmHg 30%
18:00 +29°C° 0 mm 2 mps 723 mmHg 32%
19:00 +28°C° 0 mm 2 mps 723 mmHg 33%
20:00 +27°C° 0 mm 2 mps 723 mmHg 35%
21:00 +26°C° 0 mm 3 mps 723 mmHg 37%
22:00 +26°C° 0 mm 3 mps 724 mmHg 38%
23:00 +25°C° 0 mm 3 mps 724 mmHg 40%
Show more

We Need Your Consent

Meteoprog and our Service Providers may store and access personal data such as cookies, device identifiers or other similar technologies on your device and process such data to personalise content and ads, as well as provide social media features and to analyse the traffic.

  • Store and/or access information on your device

    Cookies, device identifiers or other information can be stored or accessed on your device for the purposes indicated above.

  • Personalised ads and content, ad and content measurement, audience insights, and products development

    Ads and content can be personalised based on a profile. More data can be added to better personalise ads and content. Ad and content performance can be measured. Insights about the audience who saw the ads and content can be derived. Such data can be used to develop or improve user’s experience, systems and software.

By clicking ‘I Agree’ you will allow the use of indicated cookies, device identifiers, web beacons or other similar technologies. Your settings can be changed in the browser on your device.

For certain purposes, legitimate interests may be relied on, rather than consent. You can read more about this in our Privacy and Cookie Policy.